www.pogodaiklimat.ru

Погода и климат >> Архив погоды >> Россия >> Мордовия >> Краснослободск


ПОГОДА в Краснослободске

  • Прогноз погоды в Краснослободске
  • Монитор погоды в Краснослободске

АРХИВ ПОГОДЫ в Краснослободске

Время (UTC), дата Ветер
(напр.,м/с)
 
Видим.   Явления Облачность Т
(С)
Тd
(С)
f
(%)
Тe
(С)
Тes
(С)
Комфортность P
(гПа)
Po
(гПа)
Тmin
(С)
Tmax
(С)
R
(мм)
R24
(мм)
S
(см)
00 14.05 В 2-2
{2}
10 км 10/0
[Ci fib]
+16.3 +11.8 75 +16 +16 1016.3 994.1
03 14.05 СВ 2-2
{2}
20 км 10/0
[Ci fib]
+16.8 +11.9 73 +17 +18 1015.1 992.9 +15.0
06 14.05 СВ 2-2
{2}
20 км 8/0
[Ci fib]
+21.2 +13.8 63 +24 +32 комфорт 1014.9 993.1
09 14.05 СВ 4-4
{4}
20 км 4/0
[Ci fib]
+25.3 +13.3 47 +27 +37 жарко 1014.2 992.7
12 14.05 С 4-4
{4}
20 км 3/3 1000 м
[Cu hum]
+27.3 +10.3 35 +28 +33 жарко 1012.7 991.5
15 14.05 С 2-2
{2}
20 км 8/8 300 м
[Cb calv]
+26.0 +9.5 35 +26 +27 жарко 1013.2 991.8 +28.0
18 14.05 ЮВ 4-4
{4}
10 км гроза без осадков 10/10 300 м
[Cb calv]
+20.3 +11.0 55 +22 +22 комфорт 1014.0 992.2
21 14.05 ЮЗ 2-4
{4}
10 км {гроза, ливн. осадки} 6/0
[Cc]
+18.0 +11.4 65 +19 +19 1013.7 991.8
00 15.05 С 2-4
{4}
10 км {гроза, ливн. осадки} 6/0
[Ci fib]
+15.0 +12.1 83 +15 +15 1013.7 991.6
03 15.05 СВ 2-4
{4}
20 км 10/0
[Ac trans]
+16.6 +11.7 73 +17 +17 1014.1 992.0 +14.5 0.0
06 15.05 Ю 2-2
{2}
20 км 10/0
[Ac trans]
+19.3 +14.3 73 +21 +25 комфорт 1014.9 993.0
09 15.05 штиль 0 20 км 4/4 1000 м
[Cu hum]
+25.8 +13.6 47 +28 +40 жарко 1014.1 992.7
12 15.05 С 2-4
{4}
20 км гроза без осадков 8/8 300 м
[Cb cap]
+22.6 +13.6 57 +26 +28 жарко 1014.4 992.7
15 15.05 С 4-6
{6}
20 км {гроза} 10/10 300 м
[Cb cap]
+21.6 +14.5 64 +25 +25 комфорт 1014.2 992.5 +27.8
18 15.05 С 4-6
{6}
10 км 10/0
[Ac As]
+17.4 +15.1 86 +17 +17 1015.4 993.3
21 15.05 С 4-6
{6}
10 км 10/0
[Ac As]
+16.8 +14.0 84 +16 +16 1015.1 993.0
00 16.05 С 2-4
{4}
10 км 10/0
[Cs]
-14.8 +13.3 100 -4 -4 1015.0 992.7
03 16.05 С 2-2
{2}
10 км дымка 10/0
[Ac trans]
+14.3 +13.7 96 +14 +14 1015.3 993.0 +13.8 4
06 16.05 С 2-2
{2}
4000 м слаб. дождь 10/10 300 м
[Frnb Ns]
+14.9 +13.8 93 +15 +15 1016.1 993.9
09 16.05 С 2-4
{4}
20 км {дождь} 10/0
[As op]
+17.0 +14.4 85 +17 +20 1016.7 994.7
12 16.05 С 4-6
{6}
20 км {дождь} 10/0
[Ac As]
+17.7 +12.5 72 +17 +19 1018.0 995.9
15 16.05 С 2-4
{4}
20 км 3/3 1000 м
[Cu hum]
+18.5 +9.7 57 +19 +21 1018.3 996.3 +18.8 3
18 16.05 С 2-4
{4}
10 км 3/0
[Ci fib]
+14.0 +6.8 62 +14 +14 1020.1 997.6
21 16.05 С 2-4
{4}
10 км ясно +10.5 +3.4 61 +9 +9 1021.1 998.3
00 17.05 С 2-4
{4}
10 км ясно +7.5 +2.1 69 +6 +6 1021.8 998.7
03 17.05 С 2-4
{4}
20 км ясно +7.8 +2.9 71 +6 +8 1022.9 999.9 +7.4
06 17.05 С 4-4
{4}
20 км ясно +12.8 0.0 41 +11 +18 1023.4 1000.7
09 17.05 С 4-4
{4}
20 км 6/4 1000 м
[Cu hum Ci fib]
+15.0 +0.2 36 +14 +20 1022.6 1000.2
12 17.05 С 2-4
{4}
20 км ясно +15.8 -0.5 33 +16 +26 1021.5 999.1
15 17.05 З 2-4
{4}
20 км ясно +15.4 -0.9 33 +16 +17 1020.4 998.0 +16.1
18 17.05 СЗ 2-2
{2}
10 км ясно +10.6 +1.3 53 +10 +10 1020.6 997.8
21 17.05 штиль 0 10 км ясно +8.3 0.0 56 +8 +8 1019.8 996.9
00 18.05 С 2-2
{2}
10 км ясно +8.1 -0.7 54 +7 +7 1019.4 996.5
03 18.05 З 4-4
{4}
20 км 6/0
[Ci fib]
+10.4 +1.1 52 +8 +9 1018.3 995.6 +7.3
06 18.05 З 4-6
{6}
20 км ясно +17.0 +2.1 37 +17 +23 1016.6 994.4
09 18.05 З 6-10
{10}
20 км 8/8 1000 м
[Cu med, cong]
+19.0 +2.3 33 +19 +20 1015.3 993.3
12 18.05 З 6-10
{10}
20 км ясно +19.7 0.0 27 +19 +23 1014.0 992.1
15 18.05 СЗ 8-12
{12}
20 км 6/0
[Ci fib]
+18.6 -1.7 25 +18 +18 1013.0 991.0 +20.0
18 18.05 С 4-10
{10}
10 км ясно +13.5 -1.9 34 +12 +12 1014.4 992.0
21 18.05 С 2-4
{4}
10 км ясно +7.8 -1.4 52 +6 +6 1015.1 992.2
00 19.05 СЗ 2-2
{2}
10 км 4/0
[Ci fib]
+8.3 0.0 56 +7 +7 1014.2 991.4
03 19.05 С 2-2
{2}
20 км 3/0
[Ci fib]
+7.4 +1.5 66 +6 +7 1014.3 991.4 +6.8
06 19.05 СВ 4-6
{6}
20 км 3/3 1000 м
[Cu hum]
+12.0 +0.4 45 +10 +15 1014.6 992.1
09 19.05 С 8-10
{10}
20 км 6/6 1000 м
[Cu med, cong]
+13.8 -1.4 35 +12 +13 1015.0 992.5
12 19.05 С 8-10
{10}
20 км 8/8 1000 м
[Cu med, cong]
+14.3 -1.7 33 +12 +13 1014.9 992.5
15 19.05 С 6-8
{8}
20 км 6/6 1000 м
[Cu med, cong]
+14.0 -1.9 33 +12 +13 1015.7 993.3 +15.6
18 19.05 СВ 6-8
{8}
10 км ясно +9.6 -0.9 48 +7 +7 1018.1 995.3
21 19.05 СВ 4-6
{6}
10 км ясно +5.6 -1.4 61 +2 +2 1019.9 996.8
00 20.05 СЗ 2-4
{4}
10 км ясно +3.9 -1.7 67 +1 +1 1020.9 997.5
03 20.05 С 2-2
{2}
20 км ясно +5.5 -0.6 65 +3 +5 1022.2 999.0 +1.5
06 20.05 С 2-6
{6}
20 км 3/0
[Ci fib]
+11.0 -2.2 40 +10 +20 опасность
простуды
1021.6 998.8
09 20.05 С 2-4
{4}
20 км 8/8 1000 м
[Cu med, cong]
+13.8 -1.4 35 +14 +17 1021.2 998.6
12 20.05 СЗ 4-6
{6}
20 км 8/8 1000 м
[Cu med, cong]
+16.1 -0.7 32 +16 +17 1020.2 997.8
15 20.05 СЗ 4-6
{6}
20 км 4/4 1000 м
[Cu hum]
+15.4 -2.2 30 +15 +15 1019.4 997.1 +16.4
18 20.05 СВ 2-2
{2}
10 км ясно +11.9 -0.5 42 +11 +11 1020.3 997.6
21 20.05 СВ 2-2
{2}
10 км ясно +8.8 0.0 54 +7 +7 1021.5 998.5

 

Местоположение метеостанции Краснослободск (Мордовия, Россия): широта 54.43 долгота 43.77 высота над уровнем моря 188 м.

В архиве по умолчанию представлена погода в Краснослободске за последнюю неделю. Архивные данные за месяц целиком и за предыдущие месяцы, начиная с января 2011 года, Вы можете получить, выбрав интересующий диапазон дат из раскрывающегося списка и нажав кнопку "Ввод!".


*Определитесь, кто Вы:
робот инопланетянин человек

Внимание! Время в таблицах - всемирное. Для получения местного времени необходимо прибавить поправку, которая равна 3 ч.

Смотрите также архив погоды в соседних городах и на ближайших метеорологических станциях:

Погода в Темникове (Мордовия, Россия) (41 км)
Погода в Торбеево (Мордовия, Россия) (52 км)
Погода в Инсаре (Мордовия, Россия) (74 км)
Погода в Лукоянове (Нижегородская область, Россия) (82 км)
Погода в Саранске (Мордовия, Россия) (102 км)
Погода в Арзамасе (Нижегородская область, Россия) (105 км)
Погода в Сасово (Рязанская область, Россия) (116 км)
Погода в Большом Болдино (Нижегородская область, Россия) (119 км)
Погода в Пачелме (Пензенская область, Россия) (126 км)
Погода в Земетчино (Пензенская область, Россия) (129 км)

Пояснения к столбцам:

Ветер - указаны скорость ветра в м/с - средняя за 10 мин, порывы в срок и между сроками (в фигурных скобках) и направление, откуда дует ветер: С - северный, СВ - северо-восточный, В - восточный, ЮВ - юго-восточный, Ю - южный, ЮЗ - юго-западный, З - западный, СЗ - северо-западный.
Видимость - горизонтальная дальность видимости в метрах или километрах. При видимости от 1 до 10 км при отсутствии осадков обычно наблюдается дымка, при ухудшении видимости до 1 км и менее - туман. В сухую погоду видимость может ухудшаться дымом, пылью или мглою.
Явления - указаны атмосферные явления, наблюдавшиеся в срок или в последний час перед сроком; фигурными скобками обозначены явления, наблюдавшиеся между сроками (за 1-3 часа до срока); квадратными скобками обозначены град или гололедные отложения с указанием их диаметра в мм.
Облачность - указаны через наклонную черту общая и нижняя облачность в баллах и высота нижней границы облаков в метрах; квадратными скобками обозначены формы облаков: Ci - перистые, Cs - перисто-слоистые, Cc - перисто-кучевые, Ac - высококучевые, As - высокослоистые, Sc - слоисто-кучевые, Ns - слоисто-дождевые, Cu - кучевые, Cb - кучево-дождевые. Подробнее классификацию облаков см. в Атласе облаков (PDF).
T - Температура воздуха - температура, измеренная на высоте 2 м над землей.
Td - Температура точки росы - температура, при понижении до которой содержащийся в воздухе водяной пар достигнет насыщения.
f - Относительная влажность воздуха - влажноcть воздуха, измеренная на высоте 2 м над землей.
Te - Эффективная температура - температура, которую ощущает одетый по сезону человек в тени. Характеристика душности погоды. При расчете учитывается влияние влажности воздуха и скорости ветра на теплоощущения человека.
Tes - Эффективная температура на солнце - температура, которую ощущает человек, с поправкой на солнечный нагрев. Характеристика знойности погоды. Зависит от высоты солнца над горизонтом, облачности и скорости ветра. Ночью, в пасмурную погоду, а также при ветре 12 м/с и более поправка равна нулю.
P - Атмосферное давление - приведенное к уровню моря атмосферное давление.
Po - Атмосферное давление - измеренное на уровне метеостанции атмосферное давление.
Tmin - Минимальная температура - минимум температуры воздуха на высоте 2 м над землей.
Tmax - Максимальная температура - максимум температуры воздуха на высоте 2 м над землей.
R - Количество осадков - Количество выпавших осадков за период времени, мм. При наведении курсора мыши на число - период времени, за который выпало указанное количество осадков.
R24 - Количество осадков - Количество выпавших осадков за 24 часа, мм.
S - Снежный покров - Высота снежного покрова, см. При наведении курсора мыши на число - состояние снежного покрова и степень покрытия местности в баллах.